Location: Pella
(41.4080°N, 92.9160°W)
Time: 10:59:21
(UTC-06:00)

Iridium 91 - Visible Passes

Search period start: 16 December 2017 00:00
Search period end: 26 December 2017 00:00
Orbit: 776 x 779 km, 86.4° (Epoch: 15 December)

Date Brightness Start Highest point End Pass type
(mag) Time Alt. Az. Time Alt. Az. Time Alt. Az.
19 Dec 8.4 06:56:03 10° E 06:58:09 12° ENE 07:00:14 10° NE visible
22 Dec 8.2 06:54:36 10° ESE 06:58:02 18° E 07:01:29 10° NE visible
25 Dec 7.8 06:53:44 10° SE 06:57:58 26° E 07:02:12 10° NNE visible
25 Dec 7.9 19:13:10 10° SSE 19:13:10 10° SSE 19:13:14 10° SSE visible
